星链-4618 (STARLINK-4618 )

导读

STARLINK-4618是美国SpaceX公司星链(Starlink)星座的一员,于2022年9月5日发射入轨,属于星链第二代组网卫星,服务全球卫星宽带互联网项目。 它运行在近地轨道,配备相控阵天线与氪离子推进系统,支持高速互联网接入,可为偏远地区、移动场景提供低延迟宽带服务,星链计划最终将部署数万颗类似卫星,实现全球无缝网络覆盖,该星也承担着拓展星座覆盖密度的任务。

Basic Information
目录编号:
53735
目录名称:
STARLINK-4618
国际标识:
2022-107AM
轨道中心:
EARTH
卫星名称:
星链-4618
卫星全名:
星链-4618 (STARLINK-4618 )
卫星状态:
在轨 (已飞行1468 天)
发射日期:
2022-09-05 UTC
国别 :
美国 (US)
星等 :
--
This satellite is enrolled in the Space Conjunction Data Service (SCDS) and the current flight risk assessment level is: No High Risk
Orbit Information
数据来源 国际轨道数据 AOE轨道数据
星历时间 2026-09-12T05:35:54+0800
14小时前
查看轨道信息
2026-09-09T23:00:00+0800
2天前
查看轨道信息
半长轴 6840.867km 6840.886km
偏心率 0.0001044 0.0001067
轨道倾角 53.160° 53.161°
近地点辐角 93.103° 90.062°
升交点赤经 133.635° 144.274°
平近点角 267.009° 296.779°
近地点 462.015km 462.019km
远地点 463.445km 463.479km
周期 93.848分钟 93.849分钟
每日圈数 15.343913 15.343849
Detailed Information
固有亮度:
5
最大亮度:
2.5
卫星平台:
Starlink v1.5
覆盖范围:
全球
运营商:
太空探索技术公司
运营商所在国:
美国
制造商(研发单位):
太空探索技术公司
制造商所在国:
美国
使用方式:
暂无
Satellite Introduction
星链(Starlink)计划是由太空探索技术公司(SpaceX)提出的一个巨型低轨卫星互联网星座项目,计划在2019年至2024年间在太空搭建由约1.2万颗卫星组成的“星链”网络,其中1584颗将部署在地球上空550千米处的近地轨道,并从2020年开始工作。该卫星仍在工作。
2D Orbit Map
3D Orbit Map
Orbit Altitude Analysis Chart
Orbit Inclination Analysis Chart
Orbit Comprehensive Analysis Chart
View Comprehensive Chart
Conjunction Data List
Event ID Objects TCA Miss Dist (km) Collision Risk Probability Collision Risk Index (CRI) Action
CDM_260914-035505-373506-624221
2026-09-14T
03:55:36+0000
0.439 km
远距离
5.039832E-5 中风险 0.69
CDM_260913-060805-176805-373521
2026-09-13T
06:08:53+0000
1.044 km
极远距离
1.474365E-5 中风险 0.58
CDM_260913-131005-176805-373521
2026-09-13T
13:10:56+0000
1.413 km
极远距离
5.233333E-6 低风险 0.49
CDM_260914-044205-373506-624221
2026-09-14T
04:42:30+0000
1.169 km
极远距离
2.133537E-6 低风险 0.42
CDM_260907-195205-373506-046823
OBJECT A (60468)
2026-09-07T
19:52:28+0000
2.757 km
极远距离
1.495909E-6 低风险 0.38
CDM_260913-011305-238305-373522
2026-09-13T
01:13:22+0000
2.416 km
极远距离
1.312117E-6 低风险 0.37
CDM_260912-183705-248805-373522
2026-09-12T
18:37:52+0000
2.837 km
极远距离
1.277292E-6 低风险 0.37
CDM_260912-161005-285805-373521
2026-09-12T
16:10:40+0000
2.726 km
极远距离
1.269072E-6 低风险 0.37
CDM_260912-002705-179205-373522
2026-09-12T
00:27:41+0000
2.595 km
极远距离
1.179277E-6 低风险 0.36
CDM_260913-043505-176805-373521
2026-09-13T
04:35:05+0000
2.844 km
极远距离
9.859484E-7 极低风险 0.35
Miss Distance Evolution Trend with All Objects
Collision Probability Evolution Trend with All Objects